[TLELIST] Archives

 

[list_settings.list_name] Current TLEs

November 15th 2010 PST

HST 1 20580U 90037B 10317.18496386 .00000589 00000-0 32150-4 0 6759 2 20580 028.4709 347.0880 0003076 343.6403 016.4085 15.01088347927162 ISS (ZARYA) 1 25544U 98067A 10318.06476803 .00027741 00000-0 20429-3 0 2733 2 25544 051.6450 183.6519 0007700 195.1048 315.7916 15.72796332687040 CXO 1 25867U 99040B 10317.12500000 .00000270 00000-0 00000+0 0 5332 2 25867 067.9383 045.6049 8381515 275.5810 355.8334 00.37806088 6954 ____________________________________________________________________ These 2-Line ...Continue Reading

[list_settings.list_name] Current TLEs

November 14th 2010 PST

HST 1 20580U 90037B 10317.18496386 .00000589 00000-0 32150-4 0 6759 2 20580 028.4709 347.0880 0003076 343.6403 016.4085 15.01088347927162 ISS (ZARYA) 1 25544U 98067A 10317.40339120 .00026594 00000-0 19640-3 0 2682 2 25544 051.6454 187.0422 0007697 191.3199 172.3293 15.72754612686943 CXO 1 25867U 99040B 10317.12500000 .00000270 00000-0 00000+0 0 5332 2 25867 067.9383 045.6049 8381515 275.5810 355.8334 00.37806088 6954 ____________________________________________________________________ These 2-Line ...Continue Reading

[list_settings.list_name] Current TLEs

November 13th 2010 PST

HST 1 20580U 90037B 10315.25682231 .00000589 00000-0 32150-4 0 6740 2 20580 028.4709 359.6735 0003076 323.1425 036.8970 15.01086716926871 ISS (ZARYA) 1 25544U 98067A 10316.38599537 .00024931 00000-0 18492-3 0 2629 2 25544 051.6453 192.2553 0007844 187.4989 171.9411 15.72692273686774 CXO 1 25867U 99040B 10317.12500000 .00000270 00000-0 00000+0 0 5332 2 25867 067.9383 045.6049 8381515 275.5810 355.8334 00.37806088 6954 ____________________________________________________________________ These 2-Line ...Continue Reading

[list_settings.list_name] Current TLEs

November 12th 2010 PST

HST 1 20580U 90037B 10315.25682231 .00000589 00000-0 32150-4 0 6740 2 20580 028.4709 359.6735 0003076 323.1425 036.8970 15.01086716926871 ISS (ZARYA) 1 25544U 98067A 10315.25963123 .00024406 00000-0 18159-3 0 2560 2 25544 051.6451 198.0276 0007788 183.3791 274.7526 15.72633325686605 CXO 1 25867U 99040B 10314.50000000 .00000133 00000-0 00000+0 0 5323 2 25867 067.9254 045.7234 8378677 275.5663 358.5285 00.37807130 6942 ____________________________________________________________________ These 2-Line ...Continue Reading

[list_settings.list_name] Current TLEs

November 11th 2010 PST

HST 1 20580U 90037B 10313.59463108 .00000581 00000-0 31571-4 0 6732 2 20580 028.4705 010.5261 0003147 303.8813 056.1554 15.01085199926629 ISS (ZARYA) 1 25544U 98067A 10314.41347222 .00024117 00000-0 17982-3 0 2497 2 25544 051.6460 202.3631 0007852 179.4839 164.9716 15.72590108686466 CXO 1 25867U 99040B 10314.50000000 .00000133 00000-0 00000+0 0 5323 2 25867 067.9254 045.7234 8378677 275.5663 358.5285 00.37807130 6942 ____________________________________________________________________ These 2-Line ...Continue Reading

[list_settings.list_name] Current TLEs

November 10th 2010 PST

HST 1 20580U 90037B 10310.66916976 .00000549 00000-0 29129-4 0 6722 2 20580 028.4697 029.6287 0003330 271.5310 088.4942 15.01082471926185 ISS (ZARYA) 1 25544U 98067A 10313.28966556 .00023663 00000-0 17696-3 0 2428 2 25544 051.6454 208.1248 0007845 174.7470 283.2965 15.72532791686294 CXO 1 25867U 99040B 10314.50000000 .00000133 00000-0 00000+0 0 5323 2 25867 067.9254 045.7234 8378677 275.5663 358.5285 00.37807130 6942 ____________________________________________________________________ These 2-Line ...Continue Reading

[list_settings.list_name] Current TLEs

November 9th 2010 PST

HST 1 20580U 90037B 10310.66916976 .00000549 00000-0 29129-4 0 6722 2 20580 028.4697 029.6287 0003330 271.5310 088.4942 15.01082471926185 ISS (ZARYA) 1 25544U 98067A 10312.33753632 .00024349 00000-0 18228-3 0 2358 2 25544 051.6466 213.0001 0007769 171.3348 293.0467 15.72489146686146 CXO 1 25867U 99040B 10303.91666667 .00000504 00000-0 00000+0 0 5314 2 25867 067.8551 046.3118 8358500 275.5285 357.7704 00.37810032 6900 ____________________________________________________________________ These 2-Line ...Continue Reading

[list_settings.list_name] Current TLEs

November 8th 2010 PST

HST 1 20580U 90037B 10310.66916976 .00000549 00000-0 29129-4 0 6722 2 20580 028.4697 029.6287 0003330 271.5310 088.4942 15.01082471926185 ISS (ZARYA) 1 25544U 98067A 10311.20284100 .00025348 00000-0 18997-3 0 2298 2 25544 051.6458 218.8095 0007925 167.3142 349.3986 15.72434934685969 CXO 1 25867U 99040B 10303.91666667 .00000504 00000-0 00000+0 0 5314 2 25867 067.8551 046.3118 8358500 275.5285 357.7704 00.37810032 6900 ____________________________________________________________________ These 2-Line ...Continue Reading

[list_settings.list_name] Current TLEs

November 7th 2010 PST

HST 1 20580U 90037B 10307.67721778 .00000548 00000-0 29018-4 0 6718 2 20580 028.4691 049.1646 0003439 240.8916 119.1353 15.01080128925731 ISS (ZARYA) 1 25544U 98067A 10310.54119213 .00026002 00000-0 19500-3 0 2240 2 25544 051.6464 222.2011 0007925 164.1416 204.6566 15.72403228685860 CXO 1 25867U 99040B 10303.91666667 .00000504 00000-0 00000+0 0 5314 2 25867 067.8551 046.3118 8358500 275.5285 357.7704 00.37810032 6900 ____________________________________________________________________ These 2-Line ...Continue Reading

[list_settings.list_name] Current TLEs

November 6th 2010 PST

HST 1 20580U 90037B 10307.67721778 .00000548 00000-0 29018-4 0 6718 2 20580 028.4691 049.1646 0003439 240.8916 119.1353 15.01080128925731 ISS (ZARYA) 1 25544U 98067A 10309.29392286 .00023572 00000-0 17780-3 0 2161 2 25544 051.6455 228.5868 0007846 158.6381 345.1919 15.72331274685662 CXO 1 25867U 99040B 10303.91666667 .00000504 00000-0 00000+0 0 5314 2 25867 067.8551 046.3118 8358500 275.5285 357.7704 00.37810032 6900 ____________________________________________________________________ These 2-Line ...Continue Reading
  • This mailing list is a public mailing list - anyone may join or leave, at any time.
  • This mailing list is announce-only.

International Space Station (ISS) / Hubble Space Telescope (HST) / Chandra X-Ray Observatory Orbital Data via EMAIL

Privacy Policy:

Private list